Time,TemperatureF,DewpointF,PressureIn,WindDirection,WindDirectionDegrees,WindSpeedMPH,WindSpeedGustMPH,Humidity,HourlyPrecipIn,Conditions,Clouds,dailyrainin,SolarRadiationWatts/m^2,SoftwareType,DateUTC
2013-10-02 04:00:00,36.0,36.0,-100.00,SSW,211,2.0,3.0,103,-99.99,,,0.01,-0.200000,,2013-10-02 11:00:00,
2013-10-02 04:52:00,36.0,36.0,-100.00,SSW,211,2.0,3.0,103,-99.99,,,0.01,-0.200000,,2013-10-02 11:52:00,
2013-10-02 06:00:00,36.0,36.0,-100.00,South,183,1.0,3.0,103,-99.99,,,0.01,-0.200000,,2013-10-02 13:00:00,
2013-10-02 06:52:00,36.0,36.0,-100.00,South,183,1.0,3.0,103,-99.99,,,0.01,-0.200000,,2013-10-02 13:52:00,
2013-10-02 07:00:00,36.0,36.0,-100.00,South,181,1.0,2.0,103,-99.99,,,0.01,-0.200000,,2013-10-02 14:00:00,
2013-10-02 07:52:00,36.0,36.0,-100.00,South,181,1.0,2.0,103,-99.99,,,0.01,-0.200000,,2013-10-02 14:52:00,
2013-10-02 08:00:00,36.0,36.0,-100.00,SE,135,1.0,1.0,103,-99.99,,,0.01,12.100000,,2013-10-02 15:00:00,
2013-10-02 08:54:00,36.0,36.0,-100.00,SE,135,1.0,1.0,103,-99.99,,,0.01,12.100000,,2013-10-02 15:54:00,
2013-10-02 09:00:00,37.0,37.0,-100.00,WNW,289,0.0,2.0,103,-99.99,,,0.01,56.900002,,2013-10-02 16:00:00,
2013-10-02 09:52:00,37.0,37.0,-100.00,WNW,289,0.0,2.0,103,-99.99,,,0.01,56.900002,,2013-10-02 16:52:00,
2013-10-02 10:00:00,38.0,38.0,-100.00,South,183,0.0,1.0,102,-99.99,,,0.01,98.699997,,2013-10-02 17:00:00,
2013-10-02 10:52:00,38.0,38.0,-100.00,South,183,0.0,1.0,102,-99.99,,,0.01,98.699997,,2013-10-02 17:52:00,
2013-10-02 11:00:00,38.0,38.0,-100.00,West,279,1.0,1.0,102,-99.99,,,0.01,145.699997,,2013-10-02 18:00:00,
2013-10-02 11:52:00,38.0,38.0,-100.00,West,279,1.0,1.0,102,-99.99,,,0.01,145.699997,,2013-10-02 18:52:00,
2013-10-02 12:00:00,39.0,39.0,-100.00,NW,311,0.0,2.0,102,-99.99,,,0.00,176.500000,,2013-10-02 19:00:00,
2013-10-02 12:52:00,39.0,39.0,-100.00,NW,311,0.0,2.0,102,-99.99,,,0.00,176.500000,,2013-10-02 19:52:00,
2013-10-02 13:00:00,40.0,40.0,-100.00,NNE,25,0.0,1.0,102,-99.99,,,0.00,169.899994,,2013-10-02 20:00:00,
2013-10-02 13:52:00,40.0,40.0,-100.00,NNE,25,0.0,1.0,102,-99.99,,,0.00,169.899994,,2013-10-02 20:52:00,
2013-10-02 14:00:00,38.0,38.0,-100.00,SSE,161,0.0,2.0,102,-99.99,,,0.00,110.599998,,2013-10-02 21:00:00,
2013-10-02 14:54:00,38.0,38.0,-100.00,SSE,161,0.0,2.0,102,-99.99,,,0.00,110.599998,,2013-10-02 21:54:00,
2013-10-02 15:00:00,39.0,39.0,-100.00,SSW,208,0.0,2.0,102,-99.99,,,0.00,127.699997,,2013-10-02 22:00:00,
2013-10-02 15:53:00,39.0,39.0,-100.00,SSW,208,0.0,2.0,102,-99.99,,,0.00,127.699997,,2013-10-02 22:53:00,
2013-10-02 16:00:00,38.0,38.0,-100.00,NW,325,0.0,1.0,102,-99.99,,,0.01,63.500000,,2013-10-02 23:00:00,
2013-10-02 16:52:00,38.0,38.0,-100.00,NW,325,0.0,1.0,102,-99.99,,,0.01,63.500000,,2013-10-02 23:52:00,
2013-10-02 17:00:00,37.0,37.0,-100.00,SSW,196,1.0,2.0,102,-99.99,,,0.00,33.200001,,2013-10-03 00:00:00,
2013-10-02 17:52:00,37.0,37.0,-100.00,SSW,196,1.0,2.0,102,-99.99,,,0.00,33.200001,,2013-10-03 00:52:00,
2013-10-02 18:00:00,36.0,36.0,-100.00,SSW,203,1.0,2.0,103,-99.99,,,0.01,43.299999,,2013-10-03 01:00:00,
2013-10-02 18:52:00,36.0,36.0,-100.00,SSW,203,1.0,2.0,103,-99.99,,,0.01,43.299999,,2013-10-03 01:52:00,
2013-10-02 20:00:00,35.0,35.0,-100.00,South,180,0.0,1.0,103,-99.99,,,0.01,-0.200000,,2013-10-03 03:00:00,
2013-10-02 20:54:00,35.0,35.0,-100.00,South,180,0.0,1.0,103,-99.99,,,0.01,-0.200000,,2013-10-03 03:54:00,
2013-10-02 21:00:00,35.0,35.0,-100.00,South,184,1.0,2.0,103,-99.99,,,0.01,-0.200000,,2013-10-03 04:00:00,
2013-10-02 21:53:00,35.0,35.0,-100.00,South,184,1.0,2.0,103,-99.99,,,0.01,-0.200000,,2013-10-03 04:53:00,
2013-10-02 22:00:00,35.0,35.0,-100.00,South,189,1.0,2.0,103,-99.99,,,0.01,-0.200000,,2013-10-03 05:00:00,
2013-10-02 22:52:00,35.0,35.0,-100.00,South,189,1.0,2.0,103,-99.99,,,0.01,-0.200000,,2013-10-03 05:52:00,
2013-10-02 23:00:00,35.0,35.0,-100.00,NE,38,1.0,1.0,103,-99.99,,,0.01,-0.200000,,2013-10-03 06:00:00,
2013-10-02 23:52:00,35.0,35.0,-100.00,NE,38,1.0,1.0,103,-99.99,,,0.01,-0.200000,,2013-10-03 06:52:00,